Regional Weather Roundup
Issued by NWS Upton, NY

Current Version | Previous Version | Text Only | Print | Product List | Glossary On
Versions: 1 2 3 4 5 6 7 8 9 10 11 12 13 14 15 16 17 18 19 20 21 22 23 24 25 26 27 28 29 30 31 32 33 34 35 36 37 38 39 40 41 42 43 44 45 46 47 48 49 50
000 ASUS41 KOKX 021618 RWROKX REGIONAL WEATHER ROUNDUP NATIONAL WEATHER SERVICE NEW YORK NY 1200 PM EDT TUE JUN 02 2015 NOTE: "FAIR" INDICATES FEW OR NO CLOUDS BELOW 12,000 FEET WITH NO SIGNIFICANT WEATHER AND/OR OBSTRUCTIONS TO VISIBILITY. NYZ071-072-176-178-NJZ106-104-021700- NEW YORK CITY METRO AREA CITY SKY/WX TMP DP RH WIND PRES REMARKS CENTRAL PARK CLOUDY 53 49 86 VRB5 30.17S LAGUARDIA APRT DRIZZLE 53 49 86 NE9 30.15S KENNEDY INTL CLOUDY 54 49 83 N12 30.15S NEWARK/LIBERTY LGT RAIN 57 55 93 N10 30.14F BRNX BOT. GARD N/A 52 48 87 N6 30.15F TETERBORO CLOUDY 53 48 83 N8 30.15R FOG $$ NYZ177-179-078>081-021700- LONG ISLAND NEW YORK CITY SKY/WX TMP DP RH WIND PRES REMARKS FARMINGDALE CLOUDY 53 50 89 NE10 30.14S ISLIP LGT RAIN 52 49 89 N12 30.12S SHIRLEY LGT RAIN 52 50 93 N9 30.15R WESTHAMPTON LGT RAIN 52 50 93 N13 30.15S MONTAUK POINT N/A 51 48 89 N8 30.16R $$ NYZ052-065-067-021700- HUDSON VALLEY CITY SKY/WX TMP DP RH WIND PRES REMARKS WHITE PLAINS CLOUDY 51 48 89 N8 30.14S NEWBURGH CLOUDY 52 50 93 NE8 30.18R MONTGOMERY LGT RAIN 53 50 89 N5 30.16S POUGHKEEPSIE CLOUDY 54 48 80 NE7 30.17R ALBANY CLOUDY 56 46 69 VRB3 30.19R $$ NJZ001-105-106-008-010-013-015-019>022-104-021700- NEW JERSEY CITY SKY/WX TMP DP RH WIND PRES REMARKS NEWARK/LIBERTY LGT RAIN 57 55 93 N10 30.14F TETERBORO CLOUDY 53 48 83 N8 30.15R FOG CALDWELL CLOUDY 53 49 86 VRB5 30.16R MORRISTOWN CLOUDY 59 57 94 NE6 30.16S FOG SOMERVILLE LGT RAIN 55 51 86 NE7 30.13S SUSSEX LGT RAIN 52 48 86 NE5 30.17S ANDOVER N/A 50 48 93 VRB5 30.16S TRENTON CLOUDY 54 51 90 NE7 30.13S FOG MILLVILLE CLOUDY 57 54 89 NE8 30.10R ATLANTIC CITY CLOUDY 56 54 93 NE10 30.10S WRIGHTSTOWN CLOUDY 53 50 88 NE10 30.11S TOMS RIVER CLOUDY N/A N/A N/A NE12 30.13R BELMAR CLOUDY 52 45 76 NE9 30.14S $$ PAZ047>061-062-071-021700- EASTERN PENNSYLVANIA CITY SKY/WX TMP DP RH WIND PRES REMARKS PHILADELPHIA CLOUDY 55 51 86 NE13 30.13R ALLENTOWN RAIN 54 50 87 NE6 30.15S FOG SCRANTON CLOUDY 56 51 84 CALM 30.16R $$ CTZ002-004>006-009-010-012-RIZ004-006-007-MAZ004-011-015-021700- SOUTHERN NEW ENGLAND IN CT CITY SKY/WX TMP DP RH WIND PRES REMARKS BRADLEY INTL LGT RAIN 52 48 86 N9 30.17F HARTFORD LGT RAIN 51 47 86 NE8 30.17S DANBURY LGT RAIN 50 45 83 NE7 30.17S WTRBRY/OXFORD CLOUDY 48 43 81 NE10 30.17S FOG BRIDGEPORT LGT RAIN 54 49 83 N8 30.16R MERIDEN LGT RAIN 52 47 83 N9 30.16F NEW HAVEN CLOUDY 52 48 86 N13 30.15S CHESTER LGT RAIN 50 48 93 NE6 30.15S GROTON LGT RAIN 52 48 86 N10 30.14R WILLIMANTIC CLOUDY 51 46 83 NE10 30.17R IN RI CITY SKY/WX TMP DP RH WIND PRES REMARKS PROVIDENCE CLOUDY 50 46 86 N14 30.16S BLOCK ISLAND CLOUDY 50 45 81 NE12G17 30.14R WESTERLY LGT RAIN 51 48 89 N10 30.15S FOG IN MA CITY SKY/WX TMP DP RH WIND PRES REMARKS BOSTON LGT RAIN 48 46 93 N13 30.19S WORCESTER LGT RAIN 47 43 86 NE8 30.18R WESTFIELD CLOUDY 52 46 80 NE6 30.18S PROVINCETOWN CLOUDY 50 45 81 NE13G20 30.15S NANTUCKET CLOUDY 56 50 80 N22 30.09S $$ ANZ330-335-338-340-345-350-353-355-021700- COASTAL MARINE OBSERVATIONS STATION/POSITION TIME SKY/WX TEMP WIND PRES VSBY WAVE AIR SEA DIR/SP/G HT/PER (UTC) (F) (DEG/KT/KT) (MB) (MI) (FT/S) NY HARB ENTRANCE 1550 52 55 30/ 14/ 16 1019.9 4/ 6 4S FIRE IS 1503 56 N/A 4/ 7 20S FIRE ISLAND 1550 52 58 40/ 17/ 21 1019.5 5/ 6 GREAT SOUTH BAY 1530 52 65 20/ 12/ 14 N/A 23SW MTP 1550 51 56 20/ 17/ 21 1019.7 5/ 6 HUDSON CANYON NOT AVBL KINGS POINT 1500 51 56 50/ 6/ 10 1020.4 CENTRAL LI SOUND 1515 50 56 40/ 12/ 16 N/A EASTERN LI SOUND 1500 51 20/ 12/ 16 N/A ROBBINS REEF 1500 52 60/ 10/ 11 1019.7 $$ >>>>>>>>>>>>>>>>>>>>>>>>>>>> KEY <<<<<<<<<<<<<<<<<<<<<<<<<<< > < > SKY/WX - SKY CONDITION/PRESENT WEATHER < > TMP - TEMPERATURE IN FAHRENHEIT < > DP - DEWPOINT IN FAHRENHEIT < > RH - RELATIVE HUMIDITY IN PERCENT < > WIND - DIRECTION AND SPEED IN MPH < > PRES - MEAN SEA LEVEL PRESSURE IN INCHES OF HG < > WCI - WIND CHILL INDEX < > VSB - VISIBILITY IN MILES < > HX - HEAT INDEX < > TC - TEMPERATURE IN CELSIUS < > VRB - VARIABLE WIND DIRECTION < > < >>>>>>>>>>>>>>>>>>>>>>>>>>>> KEY <<<<<<<<<<<<<<<<<<<<<<<<<<<

USA.gov is the U.S. government's official web portal to all federal, state and local government web resources and services.